When you browse on this site, cookies collect data to enhance your experience and personalize the content and advertising you see.
Visit our Privacy Policy to learn more. By continuing to use the site, you agree to this use of cookies and data.
  • In Schweiz
  • Länderverzeichnis
  • Für 7 Tage
  • Wassertemperatur
  • Satellitenkarten
  • Wetterkarte
  • Widgets
  • user-avatar
    Anmelden

    Stündliche Wetter Tovstolis

    Heute, 19 Februar, Dienstag

    Zeit Temperatur Niederschläge Wind Luftdruck Luftfeuchtigkeit
    00:00 -2°C° 0 mm 1 m/S 756 mmHg 90%
    01:00 -2°C° 0 mm 1 m/S 756 mmHg 90%
    02:00 -4°C° 0 mm 1 m/S 756 mmHg 89%
    03:00 -4°C° 0 mm 1 m/S 756 mmHg 89%
    04:00 -4°C° 0 mm 1 m/S 756 mmHg 89%
    05:00 -7°C° 0 mm 2 m/S 756 mmHg 89%
    06:00 -6°C° 0 mm 2 m/S 756 mmHg 89%
    07:00 -6°C° 0 mm 2 m/S 755 mmHg 88%
    08:00 -7°C° 0 mm 3 m/S 755 mmHg 88%
    09:00 -6°C° 0 mm 3 m/S 755 mmHg 86%
    10:00 -5°C° 0 mm 3 m/S 755 mmHg 84%
    11:00 -4°C° 0 mm 4 m/S 755 mmHg 82%
    12:00 -3°C° 0 mm 4 m/S 754 mmHg 82%
    13:00 -2°C° 0 mm 4 m/S 754 mmHg 82%
    14:00 -2°C° 0 mm 5 m/S 753 mmHg 82%
    15:00 -2°C° 0 mm 5 m/S 753 mmHg 82%
    16:00 -4°C° 0 mm 5 m/S 752 mmHg 83%
    17:00 -4°C° 0 mm 5 m/S 751 mmHg 83%
    18:00 -4°C° 0 mm 5 m/S 751 mmHg 84%
    19:00 -4°C° 0 mm 6 m/S 750 mmHg 84%
    20:00 -4°C° 0 mm 6 m/S 750 mmHg 84%
    21:00 -4°C° 0 mm 6 m/S 749 mmHg 84%
    22:00 -4°C° 0 mm 6 m/S 749 mmHg 84%
    23:00 -4°C° 0 mm 6 m/S 748 mmHg 84%

    Morgen, 20 Februar, Mittwoch

    Zeit Temperatur Niederschläge Wind Luftdruck Luftfeuchtigkeit
    00:00 -4°C° 0 mm 6 m/S 748 mmHg 86%
    01:00 -4°C° 0 mm 6 m/S 747 mmHg 88%
    02:00 -4°C° 0 mm 5 m/S 747 mmHg 90%
    03:00 -4°C° 0 mm 5 m/S 746 mmHg 91%
    04:00 -4°C° 0 mm 5 m/S 746 mmHg 92%
    05:00 -4°C° 0 mm 5 m/S 745 mmHg 94%
    06:00 -3°C° 0 mm 4 m/S 745 mmHg 94%
    07:00 -2°C° 0 mm 4 m/S 745 mmHg 95%
    08:00 -2°C° 0 mm 4 m/S 745 mmHg 95%
    09:00 -2°C° 0.2 mm 4 m/S 745 mmHg 96%
    10:00 -1°C° 0.2 mm 4 m/S 745 mmHg 97%
    11:00 -1°C° 0.2 mm 4 m/S 745 mmHg 98%
    12:00 0°C° 0 mm 4 m/S 745 mmHg 98%
    13:00 0°C° 0 mm 4 m/S 745 mmHg 98%
    14:00 +2°C° 0 mm 3 m/S 745 mmHg 97%
    15:00 +2°C° 0 mm 3 m/S 745 mmHg 96%
    16:00 +1°C° 0 mm 3 m/S 745 mmHg 95%
    17:00 0°C° 0 mm 4 m/S 745 mmHg 94%
    18:00 0°C° 0 mm 4 m/S 745 mmHg 92%
    19:00 0°C° 0 mm 4 m/S 745 mmHg 89%
    20:00 0°C° 0 mm 4 m/S 745 mmHg 87%
    21:00 0°C° 0 mm 5 m/S 745 mmHg 87%
    22:00 0°C° 0 mm 5 m/S 745 mmHg 87%
    23:00 -1°C° 0 mm 6 m/S 744 mmHg 87%

    übermorgen, 21 Februar, Donnerstag

    Zeit Temperatur Niederschläge Wind Luftdruck Luftfeuchtigkeit
    00:00 -1°C° 0.1 mm 6 m/S 745 mmHg 86%
    01:00 -1°C° 0.1 mm 6 m/S 745 mmHg 85%
    02:00 -2°C° 0.1 mm 6 m/S 745 mmHg 84%
    03:00 -3°C° 0 mm 6 m/S 745 mmHg 80%
    04:00 -4°C° 0 mm 6 m/S 745 mmHg 76%
    05:00 -5°C° 0 mm 6 m/S 745 mmHg 73%
    06:00 -5°C° 0 mm 6 m/S 745 mmHg 72%
    07:00 -5°C° 0 mm 6 m/S 746 mmHg 72%
    08:00 -6°C° 0 mm 7 m/S 746 mmHg 72%
    09:00 -6°C° 0.1 mm 7 m/S 746 mmHg 70%
    10:00 -6°C° 0.1 mm 7 m/S 746 mmHg 69%
    11:00 -6°C° 0.1 mm 8 m/S 746 mmHg 67%
    12:00 -6°C° 0.1 mm 8 m/S 747 mmHg 67%
    13:00 -6°C° 0.1 mm 8 m/S 747 mmHg 67%
    14:00 -6°C° 0.1 mm 8 m/S 747 mmHg 66%
    15:00 -6°C° 0 mm 7 m/S 747 mmHg 67%
    16:00 -6°C° 0 mm 6 m/S 748 mmHg 68%
    17:00 -6°C° 0 mm 6 m/S 748 mmHg 69%
    18:00 -6°C° 0 mm 5 m/S 748 mmHg 71%
    19:00 -7°C° 0 mm 5 m/S 749 mmHg 72%
    20:00 -7°C° 0 mm 4 m/S 749 mmHg 73%
    21:00 -7°C° 0 mm 4 m/S 749 mmHg 74%
    22:00 -8°C° 0 mm 4 m/S 750 mmHg 75%
    23:00 -8°C° 0 mm 4 m/S 750 mmHg 76%

    22 Februar, Freitag

    Zeit Temperatur Niederschläge Wind Luftdruck Luftfeuchtigkeit
    00:00 -8°C° 0 mm 4 m/S 750 mmHg 77%
    01:00 -8°C° 0 mm 4 m/S 750 mmHg 78%
    02:00 -8°C° 0 mm 5 m/S 751 mmHg 78%
    03:00 -10°C° 0 mm 5 m/S 751 mmHg 78%
    04:00 -11°C° 0 mm 5 m/S 751 mmHg 77%
    05:00 -11°C° 0 mm 6 m/S 751 mmHg 76%
    06:00 -12°C° 0 mm 6 m/S 752 mmHg 76%
    07:00 -12°C° 0 mm 6 m/S 753 mmHg 75%
    08:00 -14°C° 0 mm 6 m/S 754 mmHg 74%
    09:00 -13°C° 0 mm 7 m/S 754 mmHg 72%
    10:00 -13°C° 0 mm 7 m/S 754 mmHg 69%
    11:00 -13°C° 0 mm 7 m/S 755 mmHg 67%
    12:00 -12°C° 0 mm 7 m/S 755 mmHg 65%
    13:00 -12°C° 0 mm 7 m/S 755 mmHg 63%
    14:00 -11°C° 0 mm 8 m/S 755 mmHg 62%
    15:00 -11°C° 0 mm 7 m/S 756 mmHg 63%
    16:00 -11°C° 0 mm 7 m/S 756 mmHg 65%
    17:00 -12°C° 0 mm 7 m/S 756 mmHg 66%
    18:00 -11°C° 0 mm 6 m/S 757 mmHg 68%
    19:00 -11°C° 0 mm 6 m/S 757 mmHg 69%
    20:00 -11°C° 0 mm 6 m/S 758 mmHg 70%
    21:00 -12°C° 0 mm 5 m/S 758 mmHg 71%
    22:00 -12°C° 0 mm 5 m/S 758 mmHg 72%
    23:00 -12°C° 0 mm 5 m/S 758 mmHg 73%

    23 Februar, Samstag

    Zeit Temperatur Niederschläge Wind Luftdruck Luftfeuchtigkeit
    00:00 -12°C° 0 mm 5 m/S 758 mmHg 74%
    01:00 -12°C° 0 mm 5 m/S 758 mmHg 76%
    02:00 -13°C° 0 mm 5 m/S 759 mmHg 77%
    03:00 -13°C° 0 mm 5 m/S 759 mmHg 77%
    04:00 -13°C° 0 mm 5 m/S 759 mmHg 76%
    05:00 -14°C° 0 mm 5 m/S 759 mmHg 76%
    06:00 -14°C° 0 mm 5 m/S 759 mmHg 76%
    07:00 -14°C° 0 mm 5 m/S 760 mmHg 77%
    08:00 -14°C° 0 mm 5 m/S 760 mmHg 77%
    09:00 -13°C° 0 mm 5 m/S 760 mmHg 75%
    10:00 -13°C° 0 mm 5 m/S 760 mmHg 73%
    11:00 -12°C° 0 mm 5 m/S 761 mmHg 70%
    12:00 -12°C° 0 mm 5 m/S 760 mmHg 70%
    13:00 -11°C° 0 mm 5 m/S 760 mmHg 70%
    14:00 -11°C° 0 mm 5 m/S 760 mmHg 69%
    15:00 -11°C° 0 mm 5 m/S 760 mmHg 71%
    16:00 -11°C° 0 mm 5 m/S 760 mmHg 72%
    17:00 -11°C° 0 mm 5 m/S 760 mmHg 74%
    18:00 -11°C° 0 mm 5 m/S 761 mmHg 75%
    19:00 -11°C° 0 mm 5 m/S 761 mmHg 76%
    20:00 -11°C° 0 mm 4 m/S 761 mmHg 76%
    21:00 -11°C° 0 mm 4 m/S 761 mmHg 78%
    22:00 -11°C° 0 mm 4 m/S 762 mmHg 80%
    23:00 -12°C° 0 mm 3 m/S 762 mmHg 82%

    24 Februar, Sonntag

    Zeit Temperatur Niederschläge Wind Luftdruck Luftfeuchtigkeit
    00:00 -12°C° 0 mm 3 m/S 762 mmHg 83%
    01:00 -12°C° 0 mm 3 m/S 762 mmHg 84%
    02:00 -12°C° 0 mm 3 m/S 762 mmHg 85%
    03:00 -13°C° 0 mm 3 m/S 762 mmHg 85%
    04:00 -13°C° 0 mm 3 m/S 762 mmHg 85%
    05:00 -13°C° 0 mm 3 m/S 762 mmHg 86%
    06:00 -13°C° 0 mm 3 m/S 762 mmHg 84%
    07:00 -14°C° 0 mm 4 m/S 763 mmHg 83%
    08:00 -14°C° 0 mm 4 m/S 763 mmHg 82%
    09:00 -12°C° 0 mm 4 m/S 763 mmHg 78%
    10:00 -12°C° 0 mm 4 m/S 763 mmHg 74%
    11:00 -11°C° 0 mm 4 m/S 764 mmHg 70%
    12:00 -10°C° 0 mm 4 m/S 763 mmHg 68%
    13:00 -10°C° 0 mm 4 m/S 763 mmHg 66%
    14:00 -9°C° 0 mm 4 m/S 763 mmHg 64%
    15:00 -8°C° 0 mm 3 m/S 763 mmHg 67%
    16:00 -8°C° 0 mm 3 m/S 763 mmHg 70%
    17:00 -9°C° 0 mm 3 m/S 763 mmHg 72%
    18:00 -9°C° 0 mm 3 m/S 763 mmHg 75%
    19:00 -8°C° 0 mm 2 m/S 764 mmHg 78%
    20:00 -9°C° 0 mm 2 m/S 764 mmHg 81%
    21:00 -9°C° 0 mm 2 m/S 764 mmHg 82%
    22:00 -8°C° 0 mm 1 m/S 764 mmHg 83%
    23:00 -8°C° 0 mm 1 m/S 764 mmHg 84%
    Mehr zeigen